User: anonymous   Login
Location: Unspecified
(0.0000°N, 0.0000°E)
Time: 01:13:30
(UTC+00:00)
Language:

NOSS 3-3 (C) - Orbit

View from above orbital plane
View from above orbital plane
View from above satellite
View from above satellite

Ground track
Ground track

The orbit data is extracted from the following two-line orbital elements,

1 28541U 05004C   23054.76142140 0.00000200  00000-0  20003-3 0    01
2 28541  63.4078 284.6873 0448388   0.0901 359.9099 13.40870824    04
Epoch (UTC): 23 February 2023 18:16:26
Eccentricity: 0.0448388
inclination: 63.4078°
perigee height: 770 km
apogee height: 1441 km
right ascension of ascending node: 284.6873°
argument of perigee: 0.0901°
revolutions per day: 13.40870824
mean anomaly at epoch: 359.9099°
orbit number at epoch: 0

The dashed part of the orbit path shows where the satellite is in the earth's shadow,  

DLR